User: anonymous   Login
Location: Lynch Observatory
(39.9540°N, 75.1861°W)
Time: 19:05:20
(UTC-04:00)
Language:

Hubble Space Telescope - Orbit

View from above orbital plane
View from above orbital plane
View from above satellite
View from above satellite

Ground track
Ground track

The orbit data is extracted from the following two-line orbital elements,

1 20580U 90037B   22266.20616104  .00002265  00000-0  12183-3 0  9995
2 20580  28.4692 240.9224 0002468  14.4280 104.0203 15.10903324581013
Epoch (UTC): 23 September 2022 04:56:52
Eccentricity: 0.0002468
inclination: 28.4692°
perigee height: 532 km
apogee height: 535 km
right ascension of ascending node: 240.9224°
argument of perigee: 14.4280°
revolutions per day: 15.10903324
mean anomaly at epoch: 104.0203°
orbit number at epoch: 58101

The dashed part of the orbit path shows where the satellite is in the earth's shadow,  

DLR